星链-34451 (STARLINK-34451)

导读 | 豆包AI

STARLINK-34451是美国太空探索技术公司Starlink星链互联网星座中的一颗卫星,于2025年6月17日发射升空,归属美国。星链项目旨在构建全球卫星互联网通信网络,该卫星入轨后,将同其他星链卫星协同工作,为全球范围用户提供低延迟、高速率的宽带互联网接入服务,进一步扩充星链星座的在轨规模与覆盖能力。

基本信息
目录编号:
64433
目录名称:
STARLINK-34451
国际标识:
2025-129X
轨道中心:
EARTH
卫星名称:
星链-34451
卫星全名:
星链-34451 (STARLINK-34451)
卫星状态:
在轨 (已飞行316 天)
发射日期:
2025-06-17 UTC
国别 :
美国 (US)
星等 :
--
轨道信息
数据来源 国际轨道数据 AOE轨道数据
星历时间 2026-04-29T13:28:21+0800
9小时前
查看轨道信息
2026-04-26T03:00:00+0800
3天前
查看轨道信息
半长轴 6950.173km 6950.166km
偏心率 0.0002583 0.0005693
轨道倾角 70.001° 70.002°
近地点辐角 272.132° 273.276°
升交点赤经 307.179° 315.847°
平近点角 87.955° 276.495°
近地点 570.24km 568.072km
远地点 573.832km 575.986km
周期 96.107分钟 96.106分钟
每日圈数 14.983366 14.983389
详细信息
固有亮度:
5
最大亮度:
2.5
卫星平台:
Starlink V1.0
覆盖范围:
全球
运营商:
太空探索技术公司
运营商所在国:
美国
制造商(研发单位):
太空探索技术公司
制造商所在国:
美国
使用方式:
暂无
卫星简介
Starlink 计划是 SpaceX 推出的全球卫星互联网项目,通过发射低轨道卫星,为全球尤其是偏远地区提供高速、低延迟的互联网服务。自 2019 年起,Starlink 已部署数千颗卫星,旨在缩小全球数字鸿沟,推动互联网普及。该项目还为军事、航空等行业提供通信支持,带来广泛经济效益。
2D轨道图
3D轨道图
轨道高度分析图
轨道倾角分析图
轨道综合分析图
查看轨道综合分析图